Estació meteorològica de Bagergue (Vall d'Aran, Vall d'Aran)

Consulta les dades en temps real de l'estació meteorològica de Bagergue





Hora UTC 04:45
Temperatura 12.4 ºC
Humitat 78.0 %
Pressió 1025.2 hPa
Pluja 0.0 mm
Velocitat vent 0.0 km/h
Direcció vent N

Webcam

Dades diàries 2026-09-02



Hora UTC (hivern +1h; estiu +2h)
Temperatura (ºC) Humitat (%) Pressió (hPa) Velocitat vent (km/h) Precipitació (mm)
Hora UTC Aire Humitat Pressió Vel. Dir. Vel. Max Dir. Intent. màx 5 min.
00:05 13.7 88.0 1025.9 3.2 N 3.2 0.0
00:10 13.7 88.0 1025.9 3.2 N 4.8 0.0
00:15 13.7 87.0 1025.8 3.2 N 4.8 0.0
00:20 13.4 87.0 1025.8 3.2 NNW 4.8 0.0
00:25 13.3 88.0 1025.8 3.2 NNW 4.8 0.0
00:30 13.2 88.0 1025.7 4.8 N 4.8 0.0
00:35 13.1 88.0 1025.7 4.8 N 4.8 0.0
00:40 13.1 88.0 1025.6 1.6 N 6.4 0.0
00:45 13.1 88.0 1025.6 3.2 NNW 6.4 0.0
00:50 13.1 87.0 1025.6 3.2 NNW 4.8 0.0
00:55 13.2 87.0 1025.6 3.2 NNW 4.8 0.0
01:00 12.8 87.0 1025.6 4.8 N 4.8 0.0
01:05 12.8 87.0 1025.6 1.6 N 6.4 0.0
01:10 12.8 87.0 1025.7 0.0 N 6.4 0.0
01:15 12.8 87.0 1025.6 3.2 N 3.2 0.0
01:20 12.9 86.0 1025.6 1.6 N 3.2 0.0
01:25 12.9 85.0 1025.6 3.2 NNW 4.8 0.0
01:30 12.6 86.0 1025.7 3.2 N 4.8 0.0
01:35 12.4 86.0 1025.6 3.2 N 6.4 0.0
01:40 12.4 86.0 1025.6 3.2 N 6.4 0.0
01:45 12.3 86.0 1025.5 3.2 N 4.8 0.0
01:50 12.3 86.0 1025.5 3.2 N 4.8 0.0
01:55 12.4 85.0 1025.5 0.0 NNE 4.8 0.0
02:00 12.4 84.0 1025.6 3.2 N 4.8 0.0
02:05 12.4 84.0 1025.5 4.8 N 4.8 0.0
02:10 12.3 84.0 1025.5 4.8 N 4.8 0.0
02:15 12.4 84.0 1025.4 3.2 N 4.8 0.0
02:20 12.6 82.0 1025.4 3.2 N 4.8 0.0
02:25 12.5 82.0 1025.4 3.2 N 4.8 0.0
02:30 12.3 83.0 1025.4 0.0 NNE 4.8 0.0
02:35 12.3 82.0 1025.4 3.2 N 4.8 0.0
02:40 12.4 81.0 1025.4 1.6 NNE 4.8 0.0
02:45 12.5 80.0 1025.4 1.6 N 4.8 0.0
02:50 12.6 80.0 1025.3 0.0 N 4.8 0.0
02:55 12.8 79.0 1025.3 3.2 NNW 3.2 0.0
03:00 12.7 79.0 1025.3 0.0 N 3.2 0.0
03:05 12.8 79.0 1025.3 6.4 N 6.4 0.0
03:10 12.8 79.0 1025.3 1.6 N 6.4 0.0
03:15 12.9 78.0 1025.3 0.0 NE 4.8 0.0
03:20 12.9 78.0 1025.2 3.2 NW 4.8 0.0
03:25 12.7 78.0 1025.2 4.8 N 6.4 0.0
03:30 12.9 77.0 1025.2 3.2 NNE 6.4 0.0
03:35 13.1 77.0 1025.3 1.6 N 6.4 0.0
03:40 13.1 76.0 1025.3 1.6 NNE 3.2 0.0
03:45 13.3 76.0 1025.3 4.8 NNW 4.8 0.0
03:50 13.0 77.0 1025.3 1.6 NNE 6.4 0.0
03:55 12.9 77.0 1025.3 0.0 NNE 6.4 0.0
04:00 12.9 77.0 1025.4 0.0 N 3.2 0.0
04:05 12.9 77.0 1025.3 1.6 NE 4.8 0.0
04:10 12.8 77.0 1025.3 3.2 N 6.4 0.0
04:15 12.4 79.0 1025.3 0.0 N 6.4 0.0
04:20 12.3 79.0 1025.3 1.6 N 4.8 0.0
04:25 12.3 79.0 1025.1 1.6 N 4.8 0.0
04:30 12.3 79.0 1025.2 0.0 N 4.8 0.0
04:35 12.4 79.0 1025.2 0.0 N 3.2 0.0
04:40 12.4 78.0 1025.2 3.2 NNW 3.2 0.0
04:45 12.4 78.0 1025.2 0.0 N 3.2 0.0
Màxima 13.7 88.0 1025.9 6.4 N 6.4 0.0
Mínima 12.3 76.0 1025.1
Total 0.0